CMS-02 (GSAT 24)

Last updated on Fri Dec 19 2025 00:02:53 GMT+0000 (Coordinated Universal Time)

1 52903U 22067A 25352.57042138 -.00000140 00000+0 00000+0 0 9997 2 52903 0.0511 267.7601 0004515 357.7048 110.3139 1.00271563 12798
UTC large
Height (km)
Speed (km/s)
/
Latitude / Longitude
Inclination (degrees)
Orbital Period (minutes)
Azimuth
Elevation
Range (km)
Doppler Factor

Next 0 passes for location: London (51.5072 / 0.1276)

Sorry there are no passes over London.